When you browse on this site, cookies collect data to enhance your experience and personalize the content and advertising you see.
Visit our Privacy Policy to learn more. By continuing to use the site, you agree to this use of cookies and data.

Météo par heure à Elbasan

Ce jour, 4 Juillet, Samedi

Heure Température Précipitation Vent Pression Humidité
00:00 +24°C° 0 mm 1 m/s 733 mmHg 72%
01:00 +24°C° 0 mm 1 m/s 733 mmHg 71%
02:00 +23°C° 0 mm 1 m/s 733 mmHg 70%
03:00 +23°C° 0 mm 1 m/s 732 mmHg 70%
04:00 +23°C° 0 mm 2 m/s 732 mmHg 69%
05:00 +25°C° 0 mm 1 m/s 733 mmHg 65%
06:00 +26°C° 0 mm 1 m/s 733 mmHg 62%
07:00 +28°C° 0 mm 1 m/s 733 mmHg 58%
08:00 +30°C° 0 mm 1 m/s 734 mmHg 52%
09:00 +31°C° 0 mm 1 m/s 734 mmHg 46%
10:00 +33°C° 0 mm 1 m/s 734 mmHg 41%
11:00 +33°C° 0 mm 1 m/s 733 mmHg 40%
12:00 +35°C° 0 mm 2 m/s 733 mmHg 39%
13:00 +35°C° 0 mm 2 m/s 733 mmHg 38%
14:00 +34°C° 0.2 mm 3 m/s 733 mmHg 43%
15:00 +33°C° 0.2 mm 3 m/s 733 mmHg 48%
16:00 +31°C° 0.2 mm 3 m/s 732 mmHg 52%
17:00 +30°C° 0.1 mm 3 m/s 732 mmHg 58%
18:00 +28°C° 0.1 mm 2 m/s 732 mmHg 64%
19:00 +26°C° 0.1 mm 2 m/s 732 mmHg 70%
20:00 +25°C° 0.4 mm 2 m/s 732 mmHg 74%
21:00 +24°C° 0.4 mm 1 m/s 733 mmHg 77%
22:00 +23°C° 0.4 mm 1 m/s 733 mmHg 80%
23:00 +23°C° 0 mm 1 m/s 733 mmHg 80%

Demain, 5 Juillet, Dimanche

Heure Température Précipitation Vent Pression Humidité
00:00 +22°C° 0 mm 1 m/s 733 mmHg 79%
01:00 +22°C° 0 mm 1 m/s 733 mmHg 79%
02:00 +22°C° 0 mm 1 m/s 732 mmHg 78%
03:00 +21°C° 0 mm 2 m/s 732 mmHg 76%
04:00 +20°C° 0 mm 2 m/s 732 mmHg 75%
05:00 +23°C° 0 mm 2 m/s 732 mmHg 71%
06:00 +25°C° 0 mm 1 m/s 732 mmHg 66%
07:00 +27°C° 0 mm 1 m/s 732 mmHg 62%
08:00 +28°C° 0 mm 2 m/s 732 mmHg 55%
09:00 +30°C° 0 mm 2 m/s 732 mmHg 49%
10:00 +32°C° 0 mm 2 m/s 733 mmHg 42%
11:00 +32°C° 0.1 mm 2 m/s 732 mmHg 41%
12:00 +34°C° 0.1 mm 2 m/s 732 mmHg 39%
13:00 +34°C° 0.1 mm 3 m/s 732 mmHg 38%
14:00 +34°C° 0.2 mm 3 m/s 732 mmHg 40%
15:00 +33°C° 0.2 mm 3 m/s 731 mmHg 42%
16:00 +33°C° 0.2 mm 3 m/s 731 mmHg 44%
17:00 +30°C° 0.1 mm 3 m/s 731 mmHg 52%
18:00 +28°C° 0.1 mm 2 m/s 731 mmHg 59%
19:00 +26°C° 0.1 mm 2 m/s 731 mmHg 66%
20:00 +25°C° 0.1 mm 2 m/s 731 mmHg 67%
21:00 +25°C° 0.1 mm 2 m/s 731 mmHg 69%
22:00 +24°C° 0.1 mm 2 m/s 732 mmHg 70%
23:00 +24°C° 0.1 mm 2 m/s 731 mmHg 71%

Après-demain, 6 Juillet, Lundi

Heure Température Précipitation Vent Pression Humidité
00:00 +24°C° 0.1 mm 2 m/s 731 mmHg 71%
01:00 +23°C° 0.1 mm 2 m/s 731 mmHg 72%
02:00 +23°C° 0.1 mm 2 m/s 730 mmHg 72%
03:00 +23°C° 0.1 mm 2 m/s 730 mmHg 72%
04:00 +23°C° 0.1 mm 2 m/s 730 mmHg 72%
05:00 +24°C° 0.1 mm 2 m/s 730 mmHg 71%
06:00 +25°C° 0.1 mm 2 m/s 730 mmHg 70%
07:00 +25°C° 0.1 mm 2 m/s 730 mmHg 70%
08:00 +27°C° 0.1 mm 2 m/s 730 mmHg 63%
09:00 +28°C° 0.1 mm 1 m/s 730 mmHg 57%
10:00 +29°C° 0.1 mm 1 m/s 730 mmHg 51%
11:00 +30°C° 0.1 mm 1 m/s 729 mmHg 47%
12:00 +31°C° 0.1 mm 2 m/s 729 mmHg 44%
13:00 +31°C° 0.1 mm 2 m/s 729 mmHg 40%
14:00 +31°C° 0 mm 2 m/s 729 mmHg 42%
15:00 +31°C° 0 mm 2 m/s 728 mmHg 44%
16:00 +31°C° 0 mm 2 m/s 728 mmHg 46%
17:00 +29°C° 0.1 mm 2 m/s 728 mmHg 53%
18:00 +27°C° 0.1 mm 2 m/s 728 mmHg 61%
19:00 +25°C° 0.1 mm 1 m/s 728 mmHg 68%
20:00 +25°C° 0.1 mm 1 m/s 728 mmHg 69%
21:00 +24°C° 0.1 mm 1 m/s 728 mmHg 69%
22:00 +24°C° 0.1 mm 1 m/s 728 mmHg 69%
23:00 +23°C° 0 mm 1 m/s 728 mmHg 70%

7 Juillet, Mardi

Heure Température Précipitation Vent Pression Humidité
00:00 +23°C° 0 mm 1 m/s 728 mmHg 71%
01:00 +22°C° 0 mm 1 m/s 728 mmHg 71%
02:00 +22°C° 0 mm 1 m/s 728 mmHg 71%
03:00 +22°C° 0 mm 1 m/s 727 mmHg 71%
04:00 +22°C° 0 mm 1 m/s 727 mmHg 71%
05:00 +23°C° 0 mm 1 m/s 727 mmHg 67%
06:00 +25°C° 0 mm 1 m/s 728 mmHg 63%
07:00 +27°C° 0 mm 1 m/s 728 mmHg 58%
08:00 +29°C° 0.1 mm 1 m/s 728 mmHg 53%
09:00 +30°C° 0.1 mm 1 m/s 728 mmHg 49%
10:00 +32°C° 0.1 mm 2 m/s 729 mmHg 44%
11:00 +34°C° 0.1 mm 2 m/s 729 mmHg 42%
12:00 +34°C° 0.1 mm 2 m/s 729 mmHg 41%
13:00 +35°C° 0.1 mm 2 m/s 729 mmHg 40%
14:00 +34°C° 0.4 mm 3 m/s 729 mmHg 46%
15:00 +31°C° 0.4 mm 3 m/s 729 mmHg 52%
16:00 +30°C° 0.4 mm 3 m/s 729 mmHg 58%
17:00 +29°C° 1 mm 3 m/s 729 mmHg 64%
18:00 +27°C° 1 mm 2 m/s 730 mmHg 70%
19:00 +26°C° 1 mm 2 m/s 730 mmHg 76%
20:00 +25°C° 0.3 mm 2 m/s 731 mmHg 79%
21:00 +24°C° 0.3 mm 2 m/s 731 mmHg 82%
22:00 +23°C° 0.3 mm 2 m/s 732 mmHg 84%
23:00 +21°C° 0 mm 2 m/s 732 mmHg 85%

8 Juillet, Mercredi

Heure Température Précipitation Vent Pression Humidité
00:00 +20°C° 0 mm 2 m/s 732 mmHg 85%
01:00 +20°C° 0 mm 2 m/s 732 mmHg 85%
02:00 +19°C° 0 mm 2 m/s 732 mmHg 85%
03:00 +19°C° 0 mm 2 m/s 732 mmHg 85%
04:00 +18°C° 0 mm 3 m/s 732 mmHg 85%
05:00 +19°C° 0 mm 3 m/s 733 mmHg 80%
06:00 +20°C° 0 mm 3 m/s 733 mmHg 75%
07:00 +21°C° 0 mm 3 m/s 733 mmHg 70%
08:00 +24°C° 0 mm 3 m/s 734 mmHg 64%
09:00 +26°C° 0 mm 3 m/s 734 mmHg 58%
10:00 +28°C° 0 mm 3 m/s 734 mmHg 52%
11:00 +29°C° 0 mm 3 m/s 734 mmHg 49%
12:00 +29°C° 0 mm 3 m/s 734 mmHg 47%
13:00 +30°C° 0 mm 3 m/s 734 mmHg 44%
14:00 +30°C° 0 mm 3 m/s 734 mmHg 44%
15:00 +30°C° 0 mm 3 m/s 734 mmHg 44%
16:00 +30°C° 0 mm 3 m/s 734 mmHg 44%
17:00 +28°C° 0 mm 2 m/s 734 mmHg 50%
18:00 +26°C° 0 mm 2 m/s 734 mmHg 56%
19:00 +24°C° 0 mm 2 m/s 734 mmHg 62%
20:00 +23°C° 0 mm 2 m/s 735 mmHg 63%
21:00 +21°C° 0 mm 2 m/s 735 mmHg 64%
22:00 +20°C° 0 mm 2 m/s 735 mmHg 65%
23:00 +20°C° 0 mm 2 m/s 735 mmHg 65%

9 Juillet, Jeudi

Heure Température Précipitation Vent Pression Humidité
00:00 +19°C° 0 mm 2 m/s 735 mmHg 65%
01:00 +19°C° 0 mm 3 m/s 735 mmHg 65%
02:00 +19°C° 0 mm 3 m/s 735 mmHg 65%
03:00 +19°C° 0 mm 3 m/s 735 mmHg 65%
04:00 +18°C° 0 mm 3 m/s 735 mmHg 65%
05:00 +20°C° 0 mm 2 m/s 736 mmHg 62%
06:00 +23°C° 0 mm 2 m/s 736 mmHg 60%
07:00 +25°C° 0 mm 2 m/s 736 mmHg 57%
08:00 +26°C° 0 mm 2 m/s 736 mmHg 53%
09:00 +28°C° 0 mm 1 m/s 736 mmHg 49%
10:00 +30°C° 0 mm 1 m/s 737 mmHg 46%
11:00 +31°C° 0 mm 1 m/s 736 mmHg 45%
12:00 +32°C° 0 mm 2 m/s 736 mmHg 44%
13:00 +32°C° 0 mm 2 m/s 736 mmHg 43%
14:00 +32°C° 0 mm 2 m/s 736 mmHg 45%
15:00 +31°C° 0 mm 2 m/s 736 mmHg 47%
16:00 +31°C° 0 mm 2 m/s 735 mmHg 49%
17:00 +29°C° 0 mm 2 m/s 735 mmHg 56%
18:00 +27°C° 0 mm 1 m/s 735 mmHg 63%
19:00 +25°C° 0 mm 1 m/s 735 mmHg 70%
20:00 +25°C° 0 mm 1 m/s 735 mmHg 72%
21:00 +24°C° 0 mm 1 m/s 735 mmHg 74%
22:00 +23°C° 0 mm 1 m/s 735 mmHg 76%
23:00 +23°C° 0 mm 1 m/s 735 mmHg 76%
Voir plus